Preview of NWS' New Version of Forecast
This preview is not operational and should not be used for support decisions.

Regional Weather Roundup (RWR)

Issued by National Weather Service (NWS)

                            
285 
ASUS43 KLMK 200510
RWRKY 
KENTUCKY REGIONAL WEATHER ROUNDUP
NATIONAL WEATHER SERVICE LOUISVILLE KY
100 AM EDT WED JUN 20 2018

NOTE "FAIR" INDICATES FEW OR NO CLOUDS BELOW 12,000 FEET
WITH NO SIGNIFICANT WEATHER AND/OR OBSTRUCTIONS TO VISIBILITY.

KYZ001>023-026-027-061>063-070>075-200600-
WESTERN AND SOUTH CENTRAL KENTUCKY
  
CITY           SKY/WX    TMP DP  RH WIND       PRES   REMARKS
PADUCAH        FAIR      79  68  69 S7        29.93F                  
HENDERSON      FAIR      78  70  76 SW6       29.93F                  
OWENSBORO      FAIR      77  71  82 CALM      29.94F                  
HOPKINSVILLE   FAIR      77  68  72 SW7       29.97S                  
BOWLING GREEN  FAIR      81  68  64 W6        29.97S                  
GLASGOW        FAIR      75  68  78 CALM      29.98S                  
$$

KYZ024-025-028>034-038-045-046-053-200600-
NORTH CENTRAL KENTUCKY
  
CITY           SKY/WX    TMP DP  RH WIND       PRES   REMARKS
LOUISVILLE/SDF FAIR      81  70  69 SW9       29.94S                  
LOUISVILLE/LOU FAIR      80  72  76 SW6       29.94S                  
FORT KNOX      FAIR      76  70  83 SW7       29.96F                  
$$

KYZ035>037-039>044-047>052-055>060-089>105-200600-
NORTHEAST KENTUCKY
  
CITY           SKY/WX    TMP DP  RH WIND       PRES   REMARKS
LEXINGTON      FAIR      75  67  76 SW7       29.98R                  
COVINGTON      FAIR      75  68  78 SE5       29.94F                  
FRANKFORT      FAIR      76  67  73 SW5       29.95S                  
$$

KYZ054-064>069-076>088-106>120-200600-
SOUTHEAST KENTUCKY
  
CITY           SKY/WX    TMP DP  RH WIND       PRES   REMARKS
JACKSON        FAIR      74  68  81 CALM      29.99F                  
LONDON         FAIR      73  69  87 CALM      30.01R                  
SOMERSET       FAIR      72  66  83 CALM      30.01S                  
MIDDLESBORO    FAIR      71  70  98 CALM      30.02R                  
MONTICELLO     FAIR      71  69  93 VRB3      30.02R                  
$$